CPA750 VABB-VHHX

Flight info

Callsign CPA750
Flight time N/A
Altitude 33000
Route ANOLI2A AAU G450 JJS/N0493F350 A791 CEA B465 CTG A599 LINSO/K0902S1070 A599 GULOT W146 XSJ W148 LXI A599 POU
Aircraft B77W/H-SDE1E2E3FGHIJ2J3J4J5M1RWXY/LB1D1

Departure

Time 2026-05-05 23:34
Airport Chhatrapati Shivaji Maharaj International Airport (VABB)

Arrival

Time N/A
Airport Hong Kong International Airport Kai Tak (VHHX)
Time Latitude Longitude Altitude Speed Heading
2026-05-05 22:56 19.09315 72.87075 37 ft 0 kts 28°
2026-05-05 23:16 19.09312 72.87073 38 ft 1 kts 19°
2026-05-05 23:16 19.09306 72.87071 39 ft 1 kts
2026-05-05 23:16 19.09303 72.87071 38 ft 0 kts 356°
2026-05-05 23:17 19.09239 72.87062 38 ft 0 kts 37°
2026-05-05 23:17 19.09236 72.87036 38 ft 0 kts 98°
2026-05-05 23:20 19.09235 72.87042 38 ft 2 kts 98°
2026-05-05 23:20 19.09233 72.87058 38 ft 2 kts 94°
2026-05-05 23:21 19.09232 72.87091 38 ft 9 kts 91°
2026-05-05 23:21 19.09234 72.87165 38 ft 10 kts 87°
2026-05-05 23:21 19.09235 72.87222 38 ft 7 kts 99°
2026-05-05 23:21 19.09202 72.87255 38 ft 7 kts 160°
2026-05-05 23:22 19.09155 72.87261 38 ft 7 kts 174°
2026-05-05 23:22 19.09107 72.87265 38 ft 7 kts 176°
2026-05-05 23:22 19.09062 72.87278 38 ft 7 kts 148°
2026-05-05 23:22 19.09045 72.87323 38 ft 7 kts 89°
2026-05-05 23:23 19.09047 72.87374 38 ft 7 kts 86°
2026-05-05 23:23 19.09050 72.87425 37 ft 7 kts 86°
2026-05-05 23:23 19.09053 72.87476 37 ft 7 kts 87°
2026-05-05 23:23 19.09056 72.87527 37 ft 7 kts 87°
2026-05-05 23:24 19.09058 72.87578 37 ft 7 kts 86°
2026-05-05 23:24 19.09061 72.87629 37 ft 7 kts 89°
2026-05-05 23:24 19.09061 72.87680 37 ft 7 kts 90°
2026-05-05 23:24 19.09061 72.87731 37 ft 7 kts 90°
2026-05-05 23:25 19.09061 72.87782 37 ft 7 kts 90°
2026-05-05 23:25 19.09060 72.87833 37 ft 7 kts 90°
2026-05-05 23:25 19.09060 72.87884 37 ft 7 kts 90°
2026-05-05 23:25 19.09060 72.87934 37 ft 5 kts 90°
2026-05-05 23:26 19.09061 72.87967 37 ft 5 kts 88°
2026-05-05 23:26 19.09062 72.88002 37 ft 5 kts 88°
2026-05-05 23:26 19.09051 72.88040 37 ft 5 kts 124°
2026-05-05 23:26 19.09017 72.88050 36 ft 3 kts 183°
2026-05-05 23:27 19.09016 72.88050 36 ft 0 kts 183°
2026-05-05 23:33 19.08940 72.88050 34 ft 19 kts 177°
2026-05-05 23:33 19.08873 72.87992 34 ft 12 kts 269°
2026-05-05 23:33 19.08873 72.87972 35 ft 3 kts 269°
2026-05-05 23:33 19.08883 72.87695 35 ft 76 kts 272°
2026-05-05 23:34 19.08868 72.86876 38 ft 145 kts 269°
2026-05-05 23:34 19.08849 72.85611 38 ft 197 kts 269°
2026-05-05 23:34 19.08826 72.84076 314 ft 215 kts 269°
2026-05-05 23:34 19.08812 72.82461 838 ft 220 kts 270°
2026-05-05 23:35 19.08804 72.80832 1445 ft 227 kts 270°
2026-05-05 23:35 19.08783 72.79094 1741 ft 242 kts 269°
2026-05-05 23:35 19.08751 72.77290 2248 ft 250 kts 269°
2026-05-05 23:35 19.08715 72.75414 2730 ft 259 kts 269°
2026-05-05 23:36 19.08901 72.73549 3167 ft 263 kts 293°
2026-05-05 23:36 19.09999 72.72008 3680 ft 267 kts 325°
2026-05-05 23:36 19.11703 72.71267 4290 ft 269 kts 353°
2026-05-05 23:36 19.13571 72.71467 4826 ft 275 kts 21°
2026-05-05 23:37 19.15163 72.72580 5372 ft 276 kts 41°
2026-05-05 23:37 19.16702 72.73802 5866 ft 279 kts 27°
2026-05-05 23:37 19.18505 72.74531 6495 ft 278 kts 11°
2026-05-05 23:37 19.20438 72.74671 7047 ft 280 kts 355°
2026-05-05 23:38 19.22406 72.74455 7492 ft 288 kts 355°
2026-05-05 23:38 19.24423 72.74281 7981 ft 293 kts 356°
2026-05-05 23:38 19.26467 72.74146 8513 ft 296 kts 357°
2026-05-05 23:38 19.28540 72.74033 9021 ft 299 kts
2026-05-05 23:39 19.30572 72.74462 9359 ft 302 kts 30°
2026-05-05 23:39 19.32151 72.75856 9803 ft 301 kts 57°
2026-05-05 23:39 19.33126 72.77807 10174 ft 304 kts 70°
2026-05-05 23:39 19.33907 72.79965 10305 ft 323 kts 71°
2026-05-05 23:40 19.34701 72.82264 10454 ft 342 kts 72°
2026-05-05 23:40 19.35533 72.84702 10601 ft 361 kts 72°
2026-05-05 23:40 19.36408 72.87264 10839 ft 377 kts 71°
2026-05-05 23:40 19.37318 72.89907 11284 ft 386 kts 71°
2026-05-05 23:41 19.39191 72.95305 12570 ft 393 kts 71°
2026-05-05 23:41 19.40146 72.98042 13180 ft 399 kts 70°
2026-05-05 23:41 19.41115 73.00813 13793 ft 404 kts 70°
2026-05-05 23:42 19.42094 73.03616 14382 ft 407 kts 70°
2026-05-05 23:42 19.43081 73.06441 14982 ft 410 kts 70°
2026-05-05 23:42 19.44074 73.09285 15564 ft 414 kts 69°
2026-05-05 23:42 19.45064 73.12162 16131 ft 418 kts 70°
2026-05-05 23:43 19.46041 73.15077 16693 ft 422 kts 70°
2026-05-05 23:43 19.47031 73.18018 17246 ft 426 kts 69°
2026-05-05 23:43 19.48028 73.20947 17819 ft 429 kts 69°
2026-05-05 23:43 19.49057 73.23933 18344 ft 433 kts 68°
2026-05-05 23:44 19.50101 73.26939 18822 ft 436 kts 68°
2026-05-05 23:44 19.51157 73.29965 20028 ft 440 kts 69°
2026-05-05 23:44 19.52226 73.33028 19589 ft 445 kts 67°
2026-05-05 23:44 19.53304 73.36112 20056 ft 448 kts 67°
2026-05-05 23:45 19.54387 73.39212 20554 ft 450 kts 67°
2026-05-05 23:45 19.55475 73.42331 20993 ft 452 kts 67°
2026-05-05 23:45 19.56573 73.45476 21415 ft 456 kts 66°
2026-05-05 23:45 19.57676 73.48644 21826 ft 459 kts 66°
2026-05-05 23:46 19.58786 73.51836 22232 ft 463 kts 66°
2026-05-05 23:46 19.59902 73.55044 22626 ft 466 kts 66°
2026-05-05 23:46 19.61025 73.58276 23021 ft 469 kts 66°
2026-05-05 23:46 19.62155 73.61528 23412 ft 471 kts 66°
2026-05-05 23:47 19.63292 73.64802 23695 ft 475 kts 66°
2026-05-05 23:47 19.64435 73.68096 23992 ft 478 kts 66°
2026-05-05 23:47 19.65586 73.71420 24275 ft 481 kts 66°
2026-05-05 23:47 19.66740 73.74756 24580 ft 483 kts 66°
2026-05-05 23:48 19.67901 73.78112 24875 ft 486 kts 66°
2026-05-05 23:48 19.69068 73.81486 25166 ft 488 kts 66°
2026-05-05 23:48 19.70238 73.84874 25462 ft 490 kts 66°
2026-05-05 23:48 19.71413 73.88275 25762 ft 493 kts 67°
2026-05-05 23:49 19.72597 73.91705 26018 ft 495 kts 67°
2026-05-05 23:49 19.73768 73.95102 26288 ft 498 kts 67°
2026-05-05 23:49 19.74962 73.98562 26511 ft 502 kts 67°
2026-05-05 23:49 19.76162 74.02045 26757 ft 505 kts 67°
2026-05-05 23:50 19.77397 74.05553 27004 ft 507 kts 66°
2026-05-05 23:50 19.78656 74.09053 27272 ft 509 kts 66°
2026-05-05 23:50 19.79930 74.12567 27535 ft 511 kts 66°
2026-05-05 23:50 19.81208 74.16093 27783 ft 513 kts 66°
2026-05-05 23:51 19.82489 74.19641 28009 ft 515 kts 66°
2026-05-05 23:51 19.83772 74.23206 28220 ft 518 kts 66°
2026-05-05 23:51 19.85055 74.26785 28436 ft 520 kts 66°
2026-05-05 23:51 19.86344 74.30384 28650 ft 522 kts 66°
2026-05-05 23:52 19.87632 74.33989 28862 ft 524 kts 66°
2026-05-05 23:52 19.88928 74.37616 29061 ft 526 kts 67°
2026-05-05 23:52 19.90227 74.41255 29278 ft 527 kts 67°
2026-05-05 23:52 19.91526 74.44894 29582 ft 526 kts 67°
2026-05-05 23:53 19.92823 74.48530 29919 ft 525 kts 67°
2026-05-05 23:53 19.94118 74.52166 30162 ft 525 kts 67°
2026-05-05 23:53 19.95409 74.55791 30415 ft 525 kts 67°
2026-05-05 23:53 19.96701 74.59420 30690 ft 524 kts 67°
2026-05-05 23:54 19.97990 74.63041 30958 ft 523 kts 67°
2026-05-05 23:54 19.99075 74.66732 31157 ft 525 kts 77°
2026-05-05 23:54 19.99560 74.70578 31369 ft 527 kts 86°
2026-05-05 23:54 19.99512 74.74471 31629 ft 527 kts 95°
2026-05-05 23:55 19.98915 74.78307 31879 ft 525 kts 103°
2026-05-05 23:55 19.98103 74.82088 32108 ft 525 kts 103°
2026-05-05 23:55 19.97276 74.85872 32351 ft 525 kts 103°
2026-05-05 23:55 19.96464 74.89651 32621 ft 524 kts 103°
2026-05-05 23:56 19.95684 74.93379 32809 ft 525 kts 102°
2026-05-05 23:56 19.94907 74.97174 32852 ft 526 kts 102°
2026-05-05 23:56 19.93380 75.04752 32866 ft 523 kts 102°
2026-05-05 23:57 19.91863 75.12284 32868 ft 521 kts 102°
2026-05-05 23:57 19.90338 75.19801 32873 ft 520 kts 102°
2026-05-05 23:58 19.88808 75.27327 32869 ft 521 kts 102°
2026-05-05 23:58 19.87291 75.34854 32871 ft 521 kts 99°
2026-05-05 23:59 19.87225 75.42519 32874 ft 520 kts 80°
2026-05-05 23:59 19.89262 75.49862 32877 ft 518 kts 66°
2026-05-06 00:00 19.91941 75.56947 32868 ft 521 kts 66°
2026-05-06 00:00 19.94614 75.64133 32865 ft 524 kts 67°
2026-05-06 00:01 19.97241 75.71372 32866 ft 525 kts 68°
2026-05-06 00:01 19.99848 75.78627 32860 ft 525 kts 68°
2026-05-06 00:02 20.02012 75.84653 32854 ft 524 kts 68°
2026-05-06 00:02 20.04611 75.91888 32858 ft 523 kts 68°
2026-05-06 00:03 20.07206 75.99119 32859 ft 523 kts 68°
2026-05-06 00:03 20.09793 76.06338 32858 ft 522 kts 68°
2026-05-06 00:04 20.12054 76.12655 32856 ft 522 kts 68°
2026-05-06 00:04 20.14637 76.19882 32860 ft 522 kts 68°
2026-05-06 00:05 20.18506 76.30729 32864 ft 523 kts 68°
2026-05-06 00:06 20.20774 76.37099 32860 ft 524 kts 68°
2026-05-06 00:06 20.23019 76.43410 32860 ft 525 kts 68°
2026-05-06 00:07 20.25585 76.50634 32840 ft 525 kts 68°
2026-05-06 00:07 20.28169 76.57919 32849 ft 525 kts 68°
2026-05-06 00:08 20.30752 76.65195 32854 ft 525 kts 68°
2026-05-06 00:08 20.33319 76.72485 32847 ft 526 kts 68°
2026-05-06 00:09 20.35803 76.79524 32838 ft 526 kts 68°
2026-05-06 00:09 20.38321 76.86834 32840 ft 526 kts 70°
2026-05-06 00:10 20.40548 76.94277 32832 ft 526 kts 71°
2026-05-06 00:10 20.42724 77.01729 32837 ft 526 kts 71°
2026-05-06 00:11 20.44931 77.09114 32834 ft 526 kts 71°
2026-05-06 00:11 20.47175 77.16546 32827 ft 526 kts 71°
2026-05-06 00:12 20.49415 77.23976 32839 ft 526 kts 71°
2026-05-06 00:12 20.51652 77.31425 32840 ft 527 kts 71°
2026-05-06 00:13 20.53886 77.38878 32839 ft 528 kts 71°
2026-05-06 00:13 20.56178 77.46312 32843 ft 528 kts 70°
2026-05-06 00:14 20.58620 77.53696 32844 ft 528 kts 69°
2026-05-06 00:14 20.61065 77.61091 32844 ft 528 kts 70°
2026-05-06 00:15 20.63478 77.68492 32847 ft 528 kts 70°
2026-05-06 00:15 20.65881 77.75898 32846 ft 528 kts 70°
2026-05-06 00:16 20.68284 77.83306 32855 ft 528 kts 70°
2026-05-06 00:16 20.70705 77.90712 32845 ft 528 kts 69°
2026-05-06 00:17 20.73131 77.98036 32853 ft 529 kts 69°
2026-05-06 00:17 20.75589 78.05467 32860 ft 530 kts 69°
2026-05-06 00:18 20.78040 78.12907 32868 ft 532 kts 69°
2026-05-06 00:18 20.80495 78.20382 32864 ft 533 kts 69°
2026-05-06 00:19 20.82944 78.27854 32873 ft 533 kts 69°
2026-05-06 00:19 20.85400 78.35347 32868 ft 534 kts 69°
2026-05-06 00:20 20.87860 78.42834 32884 ft 533 kts 69°
2026-05-06 00:20 20.90291 78.50328 32888 ft 533 kts 70°
2026-05-06 00:21 20.92722 78.57806 32886 ft 532 kts 69°
2026-05-06 00:21 20.95158 78.65287 32887 ft 532 kts 69°
2026-05-06 00:22 20.97569 78.72706 32891 ft 532 kts 70°
2026-05-06 00:22 20.99991 78.80178 32891 ft 532 kts 70°
2026-05-06 00:23 21.02410 78.87655 32899 ft 532 kts 70°
2026-05-06 00:23 21.04830 78.95144 32902 ft 532 kts 70°
2026-05-06 00:24 21.07246 79.02634 32906 ft 532 kts 70°
2026-05-06 00:24 21.09589 79.10158 32908 ft 533 kts 72°
2026-05-06 00:25 21.11557 79.17317 32914 ft 534 kts 73°
2026-05-06 00:25 21.13613 79.24966 32918 ft 535 kts 72°
2026-05-06 00:26 21.15709 79.32620 32907 ft 536 kts 72°
2026-05-06 00:26 21.17831 79.40281 32900 ft 537 kts 72°
2026-05-06 00:27 21.19947 79.47915 32895 ft 538 kts 72°
2026-05-06 00:27 21.22068 79.55599 32897 ft 538 kts 72°
2026-05-06 00:28 21.24185 79.63287 32890 ft 538 kts 72°
2026-05-06 00:28 21.26298 79.70979 32894 ft 537 kts 72°
2026-05-06 00:29 21.28406 79.78667 32892 ft 537 kts 72°
2026-05-06 00:29 21.30508 79.86344 32892 ft 537 kts 73°
2026-05-06 00:30 21.32608 79.94030 32888 ft 537 kts 73°
2026-05-06 00:30 21.34644 80.01496 32893 ft 537 kts 73°
2026-05-06 00:31 21.36626 80.08782 32893 ft 537 kts 73°
2026-05-06 00:31 21.38716 80.16475 32889 ft 537 kts 73°
2026-05-06 00:32 21.40803 80.24171 32895 ft 537 kts 73°
2026-05-06 00:32 21.42888 80.31877 32897 ft 538 kts 73°
2026-05-06 00:33 21.44956 80.39538 32892 ft 538 kts 73°
2026-05-06 00:33 21.47037 80.47258 32900 ft 538 kts 73°
2026-05-06 00:34 21.49113 80.54975 32897 ft 538 kts 73°
2026-05-06 00:34 21.51188 80.62702 32902 ft 539 kts 73°
2026-05-06 00:35 21.53263 80.70433 32902 ft 539 kts 73°
2026-05-06 00:35 21.55335 80.78164 32913 ft 539 kts 73°
2026-05-06 00:36 21.57409 80.85918 32909 ft 540 kts 73°
2026-05-06 00:36 21.59482 80.93684 32906 ft 541 kts 73°
2026-05-06 00:37 21.61555 81.01471 32906 ft 543 kts 73°
2026-05-06 00:37 21.63630 81.09279 32895 ft 544 kts 73°
2026-05-06 00:38 21.65707 81.17110 32893 ft 544 kts 73°
2026-05-06 00:38 21.67766 81.24893 32882 ft 545 kts 73°
2026-05-06 00:39 21.69840 81.32723 32883 ft 545 kts 73°
2026-05-06 00:39 21.71980 81.40541 32880 ft 545 kts 73°
2026-05-06 00:40 21.74135 81.48360 32873 ft 545 kts 73°
2026-05-06 00:40 21.76273 81.56185 32873 ft 545 kts 73°
2026-05-06 00:41 21.78404 81.64011 32875 ft 545 kts 73°
2026-05-06 00:41 21.80405 81.71889 32863 ft 546 kts 75°
2026-05-06 00:42 21.82308 81.79800 32862 ft 546 kts 75°
2026-05-06 00:42 21.84232 81.87701 32863 ft 546 kts 75°
2026-05-06 00:43 21.86173 81.95601 32864 ft 546 kts 75°
2026-05-06 00:43 21.88089 82.03453 32861 ft 546 kts 75°
2026-05-06 00:44 21.89985 82.11371 32858 ft 546 kts 75°
2026-05-06 00:44 21.91869 82.19292 32862 ft 546 kts 75°
2026-05-06 00:45 21.93753 82.27211 32858 ft 546 kts 75°
2026-05-06 00:45 21.95639 82.35136 32862 ft 546 kts 75°
2026-05-06 00:46 21.97520 82.43062 32859 ft 546 kts 75°
2026-05-06 00:46 21.99398 82.50989 32861 ft 546 kts 76°
2026-05-06 00:47 22.01271 82.58919 32857 ft 546 kts 76°
2026-05-06 00:47 22.03141 82.66853 32856 ft 546 kts 76°
2026-05-06 00:48 22.05007 82.74790 32857 ft 546 kts 76°
2026-05-06 00:48 22.06870 82.82733 32859 ft 547 kts 76°
2026-05-06 00:49 22.08731 82.90684 32862 ft 547 kts 76°
2026-05-06 00:49 22.10591 82.98648 32866 ft 548 kts 76°
2026-05-06 00:50 22.12448 83.06619 32862 ft 548 kts 76°
2026-05-06 00:50 22.14289 83.14540 32864 ft 548 kts 76°
2026-05-06 00:51 22.16139 83.22521 32865 ft 549 kts 76°
2026-05-06 00:51 22.17987 83.30506 32866 ft 549 kts 76°
2026-05-06 00:52 22.19831 83.38503 32877 ft 549 kts 76°
2026-05-06 00:52 22.21667 83.46493 32886 ft 549 kts 76°
2026-05-06 00:53 22.23500 83.54489 32893 ft 548 kts 76°
2026-05-06 00:53 22.25329 83.62487 32884 ft 549 kts 76°
2026-05-06 00:54 22.27154 83.70481 32888 ft 548 kts 76°
2026-05-06 00:54 22.28665 83.77119 32885 ft 548 kts 76°
2026-05-06 00:55 22.30480 83.85110 32882 ft 548 kts 76°
2026-05-06 00:55 22.32290 83.93093 32885 ft 547 kts 76°
2026-05-06 00:56 22.34123 84.01069 32894 ft 546 kts 76°
2026-05-06 00:56 22.35970 84.09034 32905 ft 547 kts 76°
2026-05-06 00:57 22.37803 84.16974 32911 ft 548 kts 76°
2026-05-06 00:57 22.39644 84.24988 32903 ft 549 kts 76°
2026-05-06 00:58 22.41480 84.33004 32900 ft 550 kts 76°
2026-05-06 00:58 22.43314 84.41033 32907 ft 550 kts 76°
2026-05-06 00:59 22.45148 84.49078 32904 ft 551 kts 76°
2026-05-06 00:59 22.46977 84.57119 32906 ft 551 kts 76°
2026-05-06 01:00 22.48800 84.65151 32907 ft 550 kts 76°
2026-05-06 01:00 22.50618 84.73187 32915 ft 550 kts 76°
2026-05-06 01:01 22.52419 84.81164 32926 ft 549 kts 76°
2026-05-06 01:01 22.54213 84.89252 32920 ft 549 kts 77°
2026-05-06 01:02 22.55925 84.97234 32924 ft 549 kts 77°
2026-05-06 01:02 22.57641 85.05274 32909 ft 548 kts 77°
2026-05-06 01:03 22.59360 85.13302 32929 ft 547 kts 77°